Погода в Правой Хаве

Россия / Воронежская область     51°43′26″N   39°47′03″E
темп.,
°C
ветер,
м/с
пор.,
м/с
влажн.,
%
обл.,
%
осадки,
мм/ч
давл.,
гПа
погр.,
м
26 сентября, вс
вс2600:00+10ююз487898 0.0 1009249
03:00+10юз61190100 0.4 1008704
06:00+10зюз61292100 1.0 1006628
09:00+12з71186100 1.6 1005998
12:00+13сз8126998 0.9 10061087
15:00+12сз8127163 2.3 10071128
18:00+10сз7137867 0.4 1008864
21:00+9сз71281100 0.6 10091074
27 сентября, пн
пн2700:00+9сз7128597 0.2 1010810
03:00+9ссз61189100 0.3 1011720
06:00+9ссз61288100 0.1 1013673
09:00+10с71183100 0.1 1014800
12:00+11с797796 0.1 1016879
15:00+11с487194 0.1 1017850
18:00+11с5971100 0.0 1018479
21:00+10с5982100 0.1 1018488
28 сентября, вт
вт2800:00+9с4889100 0.2 1019451
03:00+8с4793100 0.5 1020465
06:00+8ссв5888100 0.3 1021543
09:00+7св5787100 0.6 1023935
12:00+7св5784100 0.2 1024978
15:00+8св5775100 0.3 10261041
18:00+7св5874100 0.0 1027675
21:00+6св5974100 0.0 1029628
29 сентября, ср
ср2900:00+6св487516 0.0 1030435
03:00+3ссв36825 0.0 1031113
06:00+2ссв36873 0.0 1032111
09:00+6ссв57645 0.0 1032490
12:00+10св56475 0.0 10321250
15:00+11ссв56416 0.0 10311490
18:00+7ссв36545 0.0 1032102
21:00+5св34645 0.0 103368
30 сентября, чт
чт3000:00+4св33687 0.0 103435
03:00+3св22735 0.0 103430
06:00+3ссв33765 0.0 103533
09:00+7ссв34595 0.0 1036340
12:00+11св33455 0.0 10351213
15:00+12ссв33435 0.0 10351442
18:00+9ссв22585 0.0 103522
21:00+7с226643 0.0 103513